FW2814 Weather Reports


time (UTC)temp
C
wind
direction
speed
KPH
gust
KPH
rain 1hr
cm
rain 24hr
cm
rain mn
cm
humidity
%
barometer
mb
20260510055123 15 225 0.0 0.0 0.00 0.00 0.00 81 985.4
20260510054122 15 225 0.0 0.0 0.00 0.00 0.00 81 985.6
20260510053122 16 293 0.0 0.0 0.00 0.00 0.00 80 985.5
20260510052122 15 248 0.0 0.0 0.00 0.00 0.00 81 985.5
20260510051122 16 225 0.0 0.0 0.00 0.00 0.00 80 985.5
20260510050122 16 270 0.0 0.0 0.00 0.00 0.00 79 985.4
20260510045122 16 248 0.0 0.0 0.00 0.00 0.00 80 985.4
20260510044123 16 248 0.0 0.0 0.00 0.00 0.00 81 985.4
20260510043122 16 248 0.0 0.0 0.00 0.00 0.00 80 985.5
20260510042122 16 248 0.0 0.0 0.00 0.00 0.00 80 985.5
20260510041122 16 248 0.0 0.0 0.00 0.00 0.00 80 985.5
20260510040123 16 248 0.0 0.0 0.00 0.00 0.00 81 985.5
20260510035143 16 248 0.0 0.0 0.00 0.00 0.00 82 985.5
20260510034122 16 248 0.0 0.0 0.00 0.00 0.00 82 985.5
20260510033122 16 248 0.0 0.0 0.00 0.00 0.00 81 985.5
20260510032122 16 248 0.0 0.0 0.00 0.00 0.00 81 985.5
20260510031123 17 248 0.0 0.0 0.00 0.00 0.00 81 985.2
20260510030143 17 248 0.0 0.0 0.00 0.00 0.00 81 985.2
20260510025122 17 248 0.0 0.0 0.00 0.00 0.00 81 985.2
20260510024122 17 248 0.0 0.0 0.00 0.00 0.00 81 985.0
20260510023122 17 248 0.0 0.0 0.00 0.00 0.00 81 984.9
20260510022122 17 248 0.0 0.0 0.00 0.00 0.00 79 984.7
20260510021122 17 248 0.0 0.0 0.00 0.00 0.00 78 984.6
20260510020126 18 248 0.0 0.0 0.00 0.00 0.00 77 984.6
20260510015129 18 248 0.0 0.0 0.00 0.00 0.00 76 984.4
20260510014122 18 270 0.0 0.0 0.00 0.00 0.00 75 984.4
20260510013123 18 248 0.0 0.0 0.00 0.00 0.00 75 984.2
20260510012122 19 248 0.0 0.0 0.00 0.00 0.00 73 984.1
20260510011122 19 248 0.0 0.0 0.00 0.00 0.00 72 984.0
20260510010122 20 248 0.0 0.0 0.00 0.00 0.00 72 984.0
20260510005144 20 248 0.0 0.0 0.00 0.00 0.00 72 983.9
20260510004122 21 248 0.0 0.0 0.00 0.00 0.00 71 983.8
20260510003122 21 248 0.0 0.0 0.00 0.00 0.00 69 983.7
20260510002122 22 248 0.0 0.0 0.00 0.00 0.00 67 983.7
20260510001122 22 248 0.0 0.0 0.00 0.00 0.00 68 983.7
20260510000122 23 248 0.0 0.0 0.00 0.00 0.00 65 983.7
20260509235122 23 270 0.0 0.0 0.00 0.00 0.00 64 983.6
20260509234122 24 270 0.0 0.0 0.00 0.00 0.00 61 983.4
20260509233125 24 270 0.0 0.0 0.00 0.00 0.00 59 983.2
20260509232125 25 113 0.0 0.0 0.00 0.00 0.00 57 983.2
20260509231122 25 248 0.0 0.0 0.00 0.00 0.00 55 983.2
20260509230122 25 270 0.0 0.0 0.00 0.00 0.00 54 983.2
20260509225122 25 270 0.0 0.0 0.00 0.00 0.00 51 983.2
20260509224122 25 158 0.0 0.0 0.00 0.00 0.00 53 983.1
20260509223122 26 293 0.0 0.0 0.00 0.00 0.00 49 983.1
20260509222123 26 356 0.0 3.2 0.00 0.00 0.00 52 983.0
20260509221123 26 203 0.0 0.0 0.00 0.00 0.00 49 983.2
20260509220144 27 113 0.0 0.0 0.00 0.00 0.00 46 983.2
20260509215122 27 203 0.0 0.0 0.00 0.00 0.00 48 983.1
20260509214123 27 203 0.0 0.0 0.00 0.00 0.00 48 982.9
20260509213122 27 225 0.0 0.0 0.00 0.00 0.00 47 982.9
20260509212143 27 180 0.0 0.0 0.00 0.00 0.00 47 982.9
20260509211122 28 329 1.6 4.8 0.00 0.00 0.00 46 982.7
20260509210122 28 222 0.0 3.2 0.00 0.00 0.00 45 982.7
20260509205122 30 292 0.0 3.2 0.00 0.00 0.00 45 982.8
20260509204122 31 65 0.0 4.8 0.00 0.00 0.00 42 982.9
20260509203122 31 360 0.0 0.0 0.00 0.00 0.00 42 982.8
20260509202122 31 180 0.0 3.2 0.00 0.00 0.00 44 982.8
20260509201122 32 158 0.0 0.0 0.00 0.00 0.00 41 983.0
20260509200123 31 105 1.6 4.8 0.00 0.00 0.00 42 983.2
20260509195122 31 180 0.0 0.0 0.00 0.00 0.00 45 983.2
20260509194143 32 128 1.6 4.8 0.00 0.00 0.00 43 983.2
20260509193143 32 113 0.0 0.0 0.00 0.00 0.00 43 983.2
20260509192122 31 6 0.0 4.8 0.00 0.00 0.00 44 983.5
20260509191122 32 246 0.0 3.2 0.00 0.00 0.00 44 983.4
20260509190143 32 119 1.6 4.8 0.00 0.00 0.00 44 983.5
20260509185122 31 215 0.0 4.8 0.00 0.00 0.00 47 983.5
20260509184122 32 94 1.6 6.4 0.00 0.00 0.00 45 983.5
20260509183122 31 44 0.0 6.4 0.00 0.00 0.00 46 983.5
20260509182122 32 225 0.0 0.0 0.00 0.00 0.00 45 983.4
20260509181123 30 293 0.0 0.0 0.00 0.00 0.00 48 983.4
20260509180122 30 90 0.0 0.0 0.00 0.00 0.00 49 983.2
20260509175123 29 68 0.0 0.0 0.00 0.00 0.00 51 983.2
20260509174122 29 113 0.0 0.0 0.00 0.00 0.00 51 983.4
20260509173122 30 65 0.0 4.8 0.00 0.00 0.00 47 983.2
20260509172143 30 58 0.0 4.8 0.00 0.00 0.00 50 983.4
20260509171122 31 360 0.0 3.2 0.00 0.00 0.00 48 983.4
20260509170123 31 281 0.0 1.6 0.00 0.00 0.00 46 983.4
20260509165143 31 216 0.0 4.8 0.00 0.00 0.00 50 983.4
20260509164126 31 243 0.0 3.2 0.00 0.00 0.00 47 983.5
20260509163124 29 248 0.0 0.0 0.00 0.00 0.00 52 983.4
20260509162124 30 236 0.0 6.4 0.00 0.00 0.00 51 983.4
20260509161143 30 60 1.6 8.0 0.00 0.00 0.00 52 983.4
20260509160122 29 248 0.0 0.0 0.00 0.00 0.00 53 983.4
20260509155143 27 82 0.0 6.4 0.00 0.00 0.00 58 983.5
20260509154122 28 39 1.6 6.4 0.00 0.00 0.00 56 983.5
20260509153143 27 229 1.6 4.8 0.00 0.00 0.00 59 983.2
20260509152125 26 96 1.6 4.8 0.00 0.00 0.00 63 983.2
20260509151126 25 104 1.6 6.4 0.00 0.00 0.00 65 983.1
20260509150125 23 113 0.0 3.2 0.00 0.00 0.00 70 983.1
20260509145122 24 84 1.6 4.8 0.00 0.00 0.00 70 983.1
20260509144122 21 203 0.0 0.0 0.00 0.00 0.00 80 983.0
20260509143143 19 45 0.0 3.2 0.00 0.00 0.00 84 982.9
20260509142122 18 141 0.0 4.8 0.00 0.00 0.00 85 983.0
20260509141122 17 224 1.6 4.8 0.00 0.00 0.00 87 983.0
20260509140126 17 165 1.6 6.4 0.00 0.00 0.00 88 983.0
20260509135125 17 162 0.0 4.8 0.00 0.00 0.00 88 982.9
20260509134124 17 233 0.0 6.4 0.00 0.00 0.00 88 983.0
20260509133122 17 180 1.6 8.0 0.00 0.00 0.00 90 982.9
20260509132122 16 225 0.0 3.2 0.00 0.00 0.00 90 982.9
20260509131143 16 235 0.0 3.2 0.00 0.00 0.00 91 982.9
20260509130122 16 227 1.6 4.8 0.00 0.00 0.00 92 982.9
20260509125122 15 225 0.0 3.2 0.00 0.00 0.00 93 982.7
20260509124122 15 236 1.6 4.8 0.00 0.00 0.00 93 982.7
20260509123122 15 225 0.0 3.2 0.00 0.00 0.00 94 982.9
20260509122122 15 253 0.0 4.8 0.00 0.00 0.00 94 982.9
20260509121123 14 225 0.0 4.8 0.00 0.00 0.00 94 982.7
20260509120122 13 225 0.0 0.0 0.00 0.00 0.00 94 982.7
20260509115122 13 225 0.0 0.0 0.00 0.00 0.00 94 982.4
20260509114122 13 225 0.0 0.0 0.00 0.00 0.00 94 982.0
20260509113122 13 225 0.0 0.0 0.00 0.00 0.00 94 981.9
20260509112125 13 270 0.0 0.0 0.00 0.00 0.00 94 981.9
20260509111145 13 225 0.0 0.0 0.00 0.00 0.00 94 981.9
20260509110122 13 225 0.0 0.0 0.00 0.00 0.00 94 981.9
20260509105122 13 225 0.0 0.0 0.00 0.00 0.00 94 981.7
20260509104122 13 225 0.0 0.0 0.00 0.00 0.00 93 981.9
20260509103123 12 225 0.0 0.0 0.00 0.00 0.00 93 981.9
20260509102122 12 225 0.0 0.0 0.00 0.00 0.00 93 981.8
20260509101122 12 270 0.0 0.0 0.00 0.00 0.00 93 981.9
20260509100122 12 180 0.0 0.0 0.00 0.00 0.00 93 981.9
20260509095125 12 360 0.0 0.0 0.00 0.00 0.00 92 982.1
20260509094124 13 45 0.0 0.0 0.00 0.00 0.00 91 982.2
20260509093122 13 68 0.0 0.0 0.00 0.00 0.00 91 982.2
20260509092123 13 68 0.0 0.0 0.00 0.00 0.00 91 982.2
20260509091122 13 68 0.0 0.0 0.00 0.00 0.00 91 982.2
20260509090122 13 68 0.0 0.0 0.00 0.00 0.00 90 982.4
20260509085122 13 68 0.0 0.0 0.00 0.00 0.00 90 982.4
20260509084143 13 225 0.0 0.0 0.00 0.00 0.00 90 982.2
20260509083122 13 225 0.0 0.0 0.00 0.00 0.00 90 982.1
20260509082122 14 135 0.0 0.0 0.00 0.00 0.00 90 982.2
20260509081143 14 203 0.0 0.0 0.00 0.00 0.00 89 982.2
20260509080122 13 248 0.0 0.0 0.00 0.00 0.00 89 982.1
20260509075144 14 158 0.0 0.0 0.00 0.00 0.00 89 982.1
20260509074122 13 68 0.0 0.0 0.00 0.00 0.00 90 982.1
20260509073122 13 68 0.0 0.0 0.00 0.00 0.00 89 981.6
20260509072122 13 90 0.0 0.0 0.00 0.00 0.00 89 982.1
20260509071122 13 90 0.0 0.0 0.00 0.00 0.00 90 982.2
20260509070125 13 45 0.0 0.0 0.00 0.00 0.00 90 982.2
20260509065123 13 45 0.0 0.0 0.00 0.00 0.00 88 982.6
20260509064122 13 45 0.0 0.0 0.00 0.00 0.00 87 982.8
20260509063122 13 45 0.0 0.0 0.00 0.00 0.00 88 982.9
20260509062144 14 45 0.0 0.0 0.00 0.00 0.00 85 983.1
20260509061123 15 203 0.0 0.0 0.00 0.00 0.00 84 983.2
20260509060124 15 203 0.0 0.0 0.00 0.00 0.00 84 983.1